Location: Unspecified
(49.9820°N, 20.4363°E)
Time: 00:48:09
(UTC+02:00)

ISS - Pass Details

Date: 20 July 2018
Orbit: 402 x 408 km, 51.6° (Epoch: 16 July)

Event Time Altitude Azimuth Distance (km) Brightness Sun altitude
Rises 03:51:45 0° 286° (WNW) 2,332 -0.2 -8.1°
Reaches altitude 10° 03:54:00 10° 275° (W) 1,469 -1.4 -7.9°
Maximum altitude 03:56:53 28° 214° (SW) 790 -2.9 -7.6°
Drops below altitude 10° 03:59:46 10° 152° (SSE) 1,464 -1.2 -7.2°
Sets 04:02:00 0° 141° (SE) 2,321 0.0 -7.0°
